Year,Month,Day,Hour,Minute,Value (Times are PST for barometer in hPa)
2012,12,19,00,00,1009.72
2012,12,19,00,01,1009.72
2012,12,19,00,02,1009.72
2012,12,19,00,03,1009.72
2012,12,19,00,04,1009.74
2012,12,19,00,05,1009.69
2012,12,19,00,06,1009.72
2012,12,19,00,07,1009.69
2012,12,19,00,08,1009.72
2012,12,19,00,09,1009.69
2012,12,19,00,10,1009.65
2012,12,19,00,11,1009.69
2012,12,19,00,12,1009.65
2012,12,19,00,13,1009.69
2012,12,19,00,14,1009.69
2012,12,19,00,15,1009.65
2012,12,19,00,16,1009.65
2012,12,19,00,17,1009.62
2012,12,19,00,18,1009.62
2012,12,19,00,19,1009.58
2012,12,19,00,20,1009.58
2012,12,19,00,21,1009.58
2012,12,19,00,22,1009.58
2012,12,19,00,23,1009.55
2012,12,19,00,24,1009.51
2012,12,19,00,25,1009.45
2012,12,19,00,26,1009.45
2012,12,19,00,27,1009.42
2012,12,19,00,28,1009.38
2012,12,19,00,29,1009.35
2012,12,19,00,30,1009.31
2012,12,19,00,31,1009.31
2012,12,19,00,32,1009.31
2012,12,19,00,33,1009.31
2012,12,19,00,34,1009.28
2012,12,19,00,35,1009.28
2012,12,19,00,36,1009.25
2012,12,19,00,37,1009.25
2012,12,19,00,38,1009.28
2012,12,19,00,39,1009.25
2012,12,19,00,40,1009.28
2012,12,19,00,41,1009.28
2012,12,19,00,42,1009.25
2012,12,19,00,43,1009.25
2012,12,19,00,44,1009.25
2012,12,19,00,45,1009.25
2012,12,19,00,46,1009.21
2012,12,19,00,47,1009.18
2012,12,19,00,48,1009.10
2012,12,19,00,49,1009.03
2012,12,19,00,50,1008.91
2012,12,19,00,51,1008.80
2012,12,19,00,52,1008.74
2012,12,19,00,53,1008.76
2012,12,19,00,54,1008.70
2012,12,19,00,55,1008.69
2012,12,19,00,56,1008.64
2012,12,19,00,57,1008.64
2012,12,19,00,58,1008.67
2012,12,19,00,59,1008.64
2012,12,19,01,00,1008.67
2012,12,19,01,01,1008.70
2012,12,19,01,02,1008.70
2012,12,19,01,03,1008.67
2012,12,19,01,04,1008.67
2012,12,19,01,05,1008.57
2012,12,19,01,06,1008.59
2012,12,19,01,07,1008.52
2012,12,19,01,08,1008.43
2012,12,19,01,09,1008.43
2012,12,19,01,10,1008.40
2012,12,19,01,11,1008.37
2012,12,19,01,12,1008.33
2012,12,19,01,13,1008.30
2012,12,19,01,14,1008.26
2012,12,19,01,15,1008.25
2012,12,19,01,16,1008.20
2012,12,19,01,17,1008.16
2012,12,19,01,18,1008.13
2012,12,19,01,19,1008.09
2012,12,19,01,20,1008.13
2012,12,19,01,21,1008.09
2012,12,19,01,22,1008.03
2012,12,19,01,23,1007.99
2012,12,19,01,24,1007.96
2012,12,19,01,25,1007.93
2012,12,19,01,26,1007.89
2012,12,19,01,27,1007.89
2012,12,19,01,28,1007.86
2012,12,19,01,29,1007.82
2012,12,19,01,30,1007.76
2012,12,19,01,31,1007.72
2012,12,19,01,32,1007.65
2012,12,19,01,33,1007.62
2012,12,19,01,34,1007.59
2012,12,19,01,35,1007.55
2012,12,19,01,36,1007.45
2012,12,19,01,37,1007.44
2012,12,19,01,38,1007.38
2012,12,19,01,39,1007.35
2012,12,19,01,40,1007.35
2012,12,19,01,41,1007.35
2012,12,19,01,42,1007.34
2012,12,19,01,43,1007.28
2012,12,19,01,44,1007.25
2012,12,19,01,45,1007.25
2012,12,19,01,46,1007.26
2012,12,19,01,47,1007.32
2012,12,19,01,48,1007.28
2012,12,19,01,49,1007.27
2012,12,19,01,50,1007.21
2012,12,19,01,51,1007.18
2012,12,19,01,52,1007.18
2012,12,19,01,53,1007.15
2012,12,19,01,54,1007.10
2012,12,19,01,55,1007.04
2012,12,19,01,56,1007.04
2012,12,19,01,57,1007.04
2012,12,19,01,58,1007.11
2012,12,19,01,59,1007.15
2012,12,19,02,00,1007.15
2012,12,19,02,01,1007.08
2012,12,19,02,02,1007.11
2012,12,19,02,03,1007.08
2012,12,19,02,04,1007.08
2012,12,19,02,05,1007.08
2012,12,19,02,06,1007.11
2012,12,19,02,07,1007.08
2012,12,19,02,08,1007.01
2012,12,19,02,09,1007.01
2012,12,19,02,10,1006.94
2012,12,19,02,11,1006.94
2012,12,19,02,12,1006.84
2012,12,19,02,13,1006.84
2012,12,19,02,14,1006.81
2012,12,19,02,15,1006.85
2012,12,19,02,16,1006.94
2012,12,19,02,17,1006.91
2012,12,19,02,18,1006.92
2012,12,19,02,19,1006.98
2012,12,19,02,20,1006.98
2012,12,19,02,21,1007.01
2012,12,19,02,22,1007.01
2012,12,19,02,23,1006.98
2012,12,19,02,24,1006.98
2012,12,19,02,25,1006.93
2012,12,19,02,26,1006.88
2012,12,19,02,27,1006.84
2012,12,19,02,28,1006.88
2012,12,19,02,29,1006.84
2012,12,19,02,30,1006.87
2012,12,19,02,31,1006.81
2012,12,19,02,32,1006.84
2012,12,19,02,33,1006.84
2012,12,19,02,34,1006.77
2012,12,19,02,35,1006.71
2012,12,19,02,36,1006.74
2012,12,19,02,37,1006.67
2012,12,19,02,38,1006.67
2012,12,19,02,39,1006.60
2012,12,19,02,40,1006.56
2012,12,19,02,41,1006.51
2012,12,19,02,42,1006.56
2012,12,19,02,43,1006.50
2012,12,19,02,44,1006.50
2012,12,19,02,45,1006.50
2012,12,19,02,46,1006.57
2012,12,19,02,47,1006.57
2012,12,19,02,48,1006.54
2012,12,19,02,49,1006.49
2012,12,19,02,50,1006.37
2012,12,19,02,51,1006.32
2012,12,19,02,52,1006.26
2012,12,19,02,53,1006.13
2012,12,19,02,54,1006.13
2012,12,19,02,55,1006.13
2012,12,19,02,56,1006.13
2012,12,19,02,57,1006.13
2012,12,19,02,58,1006.20
2012,12,19,02,59,1006.15
2012,12,19,03,00,1006.03
2012,12,19,03,01,1005.96
2012,12,19,03,02,1005.96
2012,12,19,03,03,1005.92
2012,12,19,03,04,1005.86
2012,12,19,03,05,1005.76
2012,12,19,03,06,1005.66
2012,12,19,03,07,1005.66
2012,12,19,03,08,1005.61
2012,12,19,03,09,1005.45
2012,12,19,03,10,1005.41
2012,12,19,03,11,1005.28
2012,12,19,03,12,1005.32
2012,12,19,03,13,1005.25
2012,12,19,03,14,1005.22
2012,12,19,03,15,1005.28
2012,12,19,03,16,1005.25
2012,12,19,03,17,1005.28
2012,12,19,03,18,1005.27
2012,12,19,03,19,1005.11
2012,12,19,03,20,1005.11
2012,12,19,03,21,1005.05
2012,12,19,03,22,1004.99
2012,12,19,03,23,1005.10
2012,12,19,03,24,1005.05
2012,12,19,03,25,1005.08
2012,12,19,03,26,1005.07
2012,12,19,03,27,1004.94
2012,12,19,03,28,1004.88
2012,12,19,03,29,1004.85
2012,12,19,03,30,1004.98
2012,12,19,03,31,1004.98
2012,12,19,03,32,1004.95
2012,12,19,03,33,1004.84
2012,12,19,03,34,1004.84
2012,12,19,03,35,1004.83
2012,12,19,03,36,1004.71
2012,12,19,03,37,1004.64
2012,12,19,03,38,1004.71
2012,12,19,03,39,1004.61
2012,12,19,03,40,1004.56
2012,12,19,03,41,1004.47
2012,12,19,03,42,1004.53
2012,12,19,03,43,1004.37
2012,12,19,03,44,1004.43
2012,12,19,03,45,1004.30
2012,12,19,03,46,1004.30
2012,12,19,03,47,1004.30
2012,12,19,03,48,1004.30
2012,12,19,03,49,1004.21
2012,12,19,03,50,1004.34
2012,12,19,03,51,1004.30
2012,12,19,03,52,1004.22
2012,12,19,03,53,1004.17
2012,12,19,03,54,1004.11
2012,12,19,03,55,1004.20
2012,12,19,03,56,1004.22
2012,12,19,03,57,1004.05
2012,12,19,03,58,1004.00
2012,12,19,03,59,1004.03
2012,12,19,04,00,1004.06
2012,12,19,04,01,1004.06
2012,12,19,04,02,1003.96
2012,12,19,04,03,1004.06
2012,12,19,04,04,1004.06
2012,12,19,04,05,1004.06
2012,12,19,04,06,1004.06
2012,12,19,04,07,1004.06
2012,12,19,04,08,1004.13
2012,12,19,04,09,1004.16
2012,12,19,04,10,1003.95
2012,12,19,04,11,1003.83
2012,12,19,04,12,1003.83
2012,12,19,04,13,1003.89
2012,12,19,04,14,1003.83
2012,12,19,04,15,1003.86
2012,12,19,04,16,1003.83
2012,12,19,04,17,1003.79
2012,12,19,04,18,1003.76
2012,12,19,04,19,1003.66
2012,12,19,04,20,1003.62
2012,12,19,04,21,1003.53
2012,12,19,04,22,1003.59
2012,12,19,04,23,1003.69
2012,12,19,04,24,1003.69
2012,12,19,04,25,1003.76
2012,12,19,04,26,1003.68
2012,12,19,04,27,1003.56
2012,12,19,04,28,1003.55
2012,12,19,04,29,1003.42
2012,12,19,04,30,1003.52
2012,12,19,04,31,1003.49
2012,12,19,04,32,1003.46
2012,12,19,04,33,1003.46
2012,12,19,04,34,1003.50
2012,12,19,04,35,1003.62
2012,12,19,04,36,1003.59
2012,12,19,04,37,1003.66
2012,12,19,04,38,1003.56
2012,12,19,04,39,1003.56
2012,12,19,04,40,1003.62
2012,12,19,04,41,1003.69
2012,12,19,04,42,1003.66
2012,12,19,04,43,1003.56
2012,12,19,04,44,1003.58
2012,12,19,04,45,1003.43
2012,12,19,04,46,1003.56
2012,12,19,04,47,1003.51
2012,12,19,04,48,1003.33
2012,12,19,04,49,1003.59
2012,12,19,04,50,1003.69
2012,12,19,04,51,1003.73
2012,12,19,04,52,1003.65
2012,12,19,04,53,1003.52
2012,12,19,04,54,1003.56
2012,12,19,04,55,1003.58
2012,12,19,04,56,1003.42
2012,12,19,04,57,1003.46
2012,12,19,04,58,1003.49
2012,12,19,04,59,1003.49
2012,12,19,05,00,1003.40
2012,12,19,05,01,1003.53
2012,12,19,05,02,1003.66
2012,12,19,05,03,1003.62
2012,12,19,05,04,1003.56
2012,12,19,05,05,1003.52
2012,12,19,05,06,1003.58
2012,12,19,05,07,1003.46
2012,12,19,05,08,1003.55
2012,12,19,05,09,1003.38
2012,12,19,05,10,1003.25
2012,12,19,05,11,1003.22
2012,12,19,05,12,1003.21
2012,12,19,05,13,1003.05
2012,12,19,05,14,1003.01
2012,12,19,05,15,1003.01
2012,12,19,05,16,1003.01
2012,12,19,05,17,1003.01
2012,12,19,05,18,1003.11
2012,12,19,05,19,1002.99
2012,12,19,05,20,1003.25
2012,12,19,05,21,1003.24
2012,12,19,05,22,1003.08
2012,12,19,05,23,1003.08
2012,12,19,05,24,1003.01
2012,12,19,05,25,1003.08
2012,12,19,05,26,1003.12
2012,12,19,05,27,1003.15
2012,12,19,05,28,1003.12
2012,12,19,05,29,1003.15
2012,12,19,05,30,1003.08
2012,12,19,05,31,1002.98
2012,12,19,05,32,1003.01
2012,12,19,05,33,1002.94
2012,12,19,05,34,1002.78
2012,12,19,05,35,1002.77
2012,12,19,05,36,1002.65
2012,12,19,05,37,1002.78
2012,12,19,05,38,1002.88
2012,12,19,05,39,1002.78
2012,12,19,05,40,1002.71
2012,12,19,05,41,1002.61
2012,12,19,05,42,1002.64
2012,12,19,05,43,1002.65
2012,12,19,05,44,1002.81
2012,12,19,05,45,1002.71
2012,12,19,05,46,1002.78
2012,12,19,05,47,1002.81
2012,12,19,05,48,1002.90
2012,12,19,05,49,1002.71
2012,12,19,05,50,1002.65
2012,12,19,05,51,1002.81
2012,12,19,05,52,1002.71
2012,12,19,05,53,1002.70
2012,12,19,05,54,1002.41
2012,12,19,05,55,1002.51
2012,12,19,05,56,1002.44
2012,12,19,05,57,1002.54
2012,12,19,05,58,1002.45
2012,12,19,05,59,1002.63
2012,12,19,06,00,1002.37
2012,12,19,06,01,1002.41
2012,12,19,06,02,1002.41
2012,12,19,06,03,1002.37
2012,12,19,06,04,1002.44
2012,12,19,06,05,1002.41
2012,12,19,06,06,1002.44
2012,12,19,06,07,1002.34
2012,12,19,06,08,1002.34
2012,12,19,06,09,1002.42
2012,12,19,06,10,1002.54
2012,12,19,06,11,1002.54
2012,12,19,06,12,1002.48
2012,12,19,06,13,1002.61
2012,12,19,06,14,1002.57
2012,12,19,06,15,1002.64
2012,12,19,06,16,1002.57
2012,12,19,06,17,1002.54
2012,12,19,06,18,1002.44
2012,12,19,06,19,1002.47
2012,12,19,06,20,1002.51
2012,12,19,06,21,1002.43
2012,12,19,06,22,1002.30
2012,12,19,06,23,1002.34
2012,12,19,06,24,1002.27
2012,12,19,06,25,1002.24
2012,12,19,06,26,1002.14
2012,12,19,06,27,1002.33
2012,12,19,06,28,1002.14
2012,12,19,06,29,1002.37
2012,12,19,06,30,1002.27
2012,12,19,06,31,1002.34
2012,12,19,06,32,1002.34
2012,12,19,06,33,1002.30
2012,12,19,06,34,1002.36
2012,12,19,06,35,1002.23
2012,12,19,06,36,1002.03
2012,12,19,06,37,1002.00
2012,12,19,06,38,1001.96
2012,12,19,06,39,1001.73
2012,12,19,06,40,1001.69
2012,12,19,06,41,1001.66
2012,12,19,06,42,1001.74
2012,12,19,06,43,1001.87
2012,12,19,06,44,1002.00
2012,12,19,06,45,1001.90
2012,12,19,06,46,1001.86
2012,12,19,06,47,1001.83
2012,12,19,06,48,1001.83
2012,12,19,06,49,1001.90
2012,12,19,06,50,1001.90
2012,12,19,06,51,1001.84
2012,12,19,06,52,1001.97
2012,12,19,06,53,1001.97
2012,12,19,06,54,1001.92
2012,12,19,06,55,1001.80
2012,12,19,06,56,1001.90
2012,12,19,06,57,1001.81
2012,12,19,06,58,1001.93
2012,12,19,06,59,1001.83
2012,12,19,07,00,1001.73
2012,12,19,07,01,1001.63
2012,12,19,07,02,1001.55
2012,12,19,07,03,1001.42
2012,12,19,07,04,1001.39
2012,12,19,07,05,1001.36
2012,12,19,07,06,1001.28
2012,12,19,07,07,1001.15
2012,12,19,07,08,1000.98
2012,12,19,07,09,1001.08
2012,12,19,07,10,1001.19
2012,12,19,07,11,1001.08
2012,12,19,07,12,1001.20
2012,12,19,07,13,1001.32
2012,12,19,07,14,1001.39
2012,12,19,07,15,1001.29
2012,12,19,07,16,1001.25
2012,12,19,07,17,1001.32
2012,12,19,07,18,1001.29
2012,12,19,07,19,1001.29
2012,12,19,07,20,1001.29
2012,12,19,07,21,1001.29
2012,12,19,07,22,1001.29
2012,12,19,07,23,1001.32
2012,12,19,07,24,1001.36
2012,12,19,07,25,1001.29
2012,12,19,07,26,1001.24
2012,12,19,07,27,1001.05
2012,12,19,07,28,1001.08
2012,12,19,07,29,1001.12
2012,12,19,07,30,1001.22
2012,12,19,07,31,1001.29
2012,12,19,07,32,1001.29
2012,12,19,07,33,1001.25
2012,12,19,07,34,1001.29
2012,12,19,07,35,1001.32
2012,12,19,07,36,1001.36
2012,12,19,07,37,1001.32
2012,12,19,07,38,1001.22
2012,12,19,07,39,1001.12
2012,12,19,07,40,1001.21
2012,12,19,07,41,1001.08
2012,12,19,07,42,1001.02
2012,12,19,07,43,1001.08
2012,12,19,07,44,1000.94
2012,12,19,07,45,1000.77
2012,12,19,07,46,1000.64
2012,12,19,07,47,1000.71
2012,12,19,07,48,1000.75
2012,12,19,07,49,1000.71
2012,12,19,07,50,1000.68
2012,12,19,07,51,1000.75
2012,12,19,07,52,1000.75
2012,12,19,07,53,1000.64
2012,12,19,07,54,1000.61
2012,12,19,07,55,1000.58
2012,12,19,07,56,1000.58
2012,12,19,07,57,1000.51
2012,12,19,07,58,1000.48
2012,12,19,07,59,1000.37
2012,12,19,08,00,1000.48
2012,12,19,08,01,1000.34
2012,12,19,08,02,1000.41
2012,12,19,08,03,1000.31
2012,12,19,08,04,1000.37
2012,12,19,08,05,1000.27
2012,12,19,08,06,1000.31
2012,12,19,08,07,1000.20
2012,12,19,08,08,1000.20
2012,12,19,08,09,1000.17
2012,12,19,08,10,1000.14
2012,12,19,08,11,1000.11
2012,12,19,08,12,1000.24
2012,12,19,08,13,1000.28
2012,12,19,08,14,1000.44
2012,12,19,08,15,1000.41
2012,12,19,08,16,1000.44
2012,12,19,08,17,1000.49
2012,12,19,08,18,1000.61
2012,12,19,08,19,1000.58
2012,12,19,08,20,1000.58
2012,12,19,08,21,1000.61
2012,12,19,08,22,1000.54
2012,12,19,08,23,1000.58
2012,12,19,08,24,1000.64
2012,12,19,08,25,1000.67
2012,12,19,08,26,1000.48
2012,12,19,08,27,1000.48
2012,12,19,08,28,1000.41
2012,12,19,08,29,1000.37
2012,12,19,08,30,1000.31
2012,12,19,08,31,1000.41
2012,12,19,08,32,1000.37
2012,12,19,08,33,1000.44
2012,12,19,08,34,1000.44
2012,12,19,08,35,1000.44
2012,12,19,08,36,1000.48
2012,12,19,08,37,1000.54
2012,12,19,08,38,1000.54
2012,12,19,08,39,1000.52
2012,12,19,08,40,1000.68
2012,12,19,08,41,1000.61
2012,12,19,08,42,1000.58
2012,12,19,08,43,1000.51
2012,12,19,08,44,1000.51
2012,12,19,08,45,1000.54
2012,12,19,08,46,1000.48
2012,12,19,08,47,1000.48
2012,12,19,08,48,1000.37
2012,12,19,08,49,1000.31
2012,12,19,08,50,1000.24
2012,12,19,08,51,1000.27
2012,12,19,08,52,1000.34
2012,12,19,08,53,1000.24
2012,12,19,08,54,1000.14
2012,12,19,08,55,1000.03
2012,12,19,08,56,1000.03
2012,12,19,08,57,1000.07
2012,12,19,08,58,1000.07
2012,12,19,08,59,1000.10
2012,12,19,09,00,1000.24
2012,12,19,09,01,1000.34
2012,12,19,09,02,1000.31
2012,12,19,09,03,1000.34
2012,12,19,09,04,1000.31
2012,12,19,09,05,1000.24
2012,12,19,09,06,1000.27
2012,12,19,09,07,1000.20
2012,12,19,09,08,1000.24
2012,12,19,09,09,1000.11
2012,12,19,09,10,1000.00
2012,12,19,09,11,999.88
2012,12,19,09,12,999.80
2012,12,19,09,13,999.90
2012,12,19,09,14,999.80
2012,12,19,09,15,999.70
2012,12,19,09,16,999.63
2012,12,19,09,17,999.59
2012,12,19,09,18,999.59
2012,12,19,09,19,999.56
2012,12,19,09,20,999.56
2012,12,19,09,21,999.53
2012,12,19,09,22,999.53
2012,12,19,09,23,999.56
2012,12,19,09,24,999.63
2012,12,19,09,25,999.70
2012,12,19,09,26,999.76
2012,12,19,09,27,999.66
2012,12,19,09,28,999.76
2012,12,19,09,29,999.80
2012,12,19,09,30,999.87
2012,12,19,09,31,999.83
2012,12,19,09,32,999.87
2012,12,19,09,33,999.87
2012,12,19,09,34,999.83
2012,12,19,09,35,999.87
2012,12,19,09,36,999.80
2012,12,19,09,37,999.73
2012,12,19,09,38,999.83
2012,12,19,09,39,999.76
2012,12,19,09,40,999.73
2012,12,19,09,41,999.76
2012,12,19,09,42,999.66
2012,12,19,09,43,999.70
2012,12,19,09,44,999.86
2012,12,19,09,45,999.74
2012,12,19,09,46,999.70
2012,12,19,09,47,999.73
2012,12,19,09,48,999.73
2012,12,19,09,49,999.63
2012,12,19,09,50,999.59
2012,12,19,09,51,999.56
2012,12,19,09,52,999.59
2012,12,19,09,53,999.53
2012,12,19,09,54,999.49
2012,12,19,09,55,999.46
2012,12,19,09,56,999.39
2012,12,19,09,57,999.39
2012,12,19,09,58,999.43
2012,12,19,09,59,999.46
2012,12,19,10,00,999.49
2012,12,19,10,01,999.46
2012,12,19,10,02,999.56
2012,12,19,10,03,999.63
2012,12,19,10,04,999.73
2012,12,19,10,05,999.76
2012,12,19,10,06,999.70
2012,12,19,10,07,999.70
2012,12,19,10,08,999.73
2012,12,19,10,09,999.70
2012,12,19,10,10,999.63
2012,12,19,10,11,999.63
2012,12,19,10,12,999.56
2012,12,19,10,13,999.46
2012,12,19,10,14,999.49
2012,12,19,10,15,999.43
2012,12,19,10,16,999.46
2012,12,19,10,17,999.46
2012,12,19,10,18,999.49
2012,12,19,10,19,999.49
2012,12,19,10,20,999.53
2012,12,19,10,21,999.59
2012,12,19,10,22,999.59
2012,12,19,10,23,999.66
2012,12,19,10,24,999.76
2012,12,19,10,25,999.70
2012,12,19,10,26,999.70
2012,12,19,10,27,999.73
2012,12,19,10,28,999.73
2012,12,19,10,29,999.76
2012,12,19,10,30,999.83
2012,12,19,10,31,999.83
2012,12,19,10,32,999.90
2012,12,19,10,33,1000.07
2012,12,19,10,34,1000.07
2012,12,19,10,35,1000.00
2012,12,19,10,36,999.97
2012,12,19,10,37,1000.07
2012,12,19,10,38,999.94
2012,12,19,10,39,999.93
2012,12,19,10,40,999.80
2012,12,19,10,41,999.73
2012,12,19,10,42,999.83
2012,12,19,10,43,999.73
2012,12,19,10,44,999.97
2012,12,19,10,45,999.90
2012,12,19,10,46,999.83
2012,12,19,10,47,999.80
2012,12,19,10,48,999.80
2012,12,19,10,49,999.76
2012,12,19,10,50,999.89
2012,12,19,10,51,1000.02
2012,12,19,10,52,999.83
2012,12,19,10,53,999.73
2012,12,19,10,54,999.70
2012,12,19,10,55,999.66
2012,12,19,10,56,999.83
2012,12,19,10,57,999.90
2012,12,19,10,58,999.97
2012,12,19,10,59,999.93
2012,12,19,11,00,999.87
2012,12,19,11,01,999.97
2012,12,19,11,02,999.71
2012,12,19,11,03,999.70
2012,12,19,11,04,999.73
2012,12,19,11,05,999.56
2012,12,19,11,06,999.46
2012,12,19,11,07,999.53
2012,12,19,11,08,999.46
2012,12,19,11,09,999.33
2012,12,19,11,10,999.29
2012,12,19,11,11,999.36
2012,12,19,11,12,999.36
2012,12,19,11,13,999.19
2012,12,19,11,14,999.26
2012,12,19,11,15,999.22
2012,12,19,11,16,999.22
2012,12,19,11,17,999.05
2012,12,19,11,18,998.92
2012,12,19,11,19,998.88
2012,12,19,11,20,998.92
2012,12,19,11,21,998.85
2012,12,19,11,22,998.99
2012,12,19,11,23,998.95
2012,12,19,11,24,998.88
2012,12,19,11,25,998.99
2012,12,19,11,26,998.95
2012,12,19,11,27,998.88
2012,12,19,11,28,998.92
2012,12,19,11,29,998.95
2012,12,19,11,30,998.95
2012,12,19,11,31,999.02
2012,12,19,11,32,998.95
2012,12,19,11,33,998.92
2012,12,19,11,34,998.88
2012,12,19,11,35,998.92
2012,12,19,11,36,998.82
2012,12,19,11,37,998.88
2012,12,19,11,38,998.75
2012,12,19,11,39,998.85
2012,12,19,11,40,998.71
2012,12,19,11,41,998.71
2012,12,19,11,42,998.65
2012,12,19,11,43,998.71
2012,12,19,11,44,998.71
2012,12,19,11,45,998.65
2012,12,19,11,46,998.61
2012,12,19,11,47,998.71
2012,12,19,11,48,998.68
2012,12,19,11,49,998.82
2012,12,19,11,50,998.85
2012,12,19,11,51,998.75
2012,12,19,11,52,998.75
2012,12,19,11,53,998.68
2012,12,19,11,54,998.92
2012,12,19,11,55,998.88
2012,12,19,11,56,998.71
2012,12,19,11,57,998.75
2012,12,19,11,58,998.75
2012,12,19,11,59,998.68
2012,12,19,12,00,998.68
2012,12,19,12,01,998.82
2012,12,19,12,02,998.85
2012,12,19,12,03,998.85
2012,12,19,12,04,998.85
2012,12,19,12,05,998.92
2012,12,19,12,06,998.88
2012,12,19,12,07,998.78
2012,12,19,12,08,998.71
2012,12,19,12,09,998.68
2012,12,19,12,10,998.68
2012,12,19,12,11,998.54
2012,12,19,12,12,998.54
2012,12,19,12,13,998.48
2012,12,19,12,14,998.58
2012,12,19,12,15,998.58
2012,12,19,12,16,998.48
2012,12,19,12,17,998.44
2012,12,19,12,18,998.51
2012,12,19,12,19,998.54
2012,12,19,12,20,998.48
2012,12,19,12,21,998.54
2012,12,19,12,22,998.48
2012,12,19,12,23,998.41
2012,12,19,12,24,998.53
2012,12,19,12,25,998.58
2012,12,19,12,26,998.41
2012,12,19,12,27,998.51
2012,12,19,12,28,998.48
2012,12,19,12,29,998.51
2012,12,19,12,30,998.41
2012,12,19,12,31,998.48
2012,12,19,12,32,998.38
2012,12,19,12,33,998.48
2012,12,19,12,34,998.44
2012,12,19,12,35,998.38
2012,12,19,12,36,998.34
2012,12,19,12,37,998.38
2012,12,19,12,38,998.44
2012,12,19,12,39,998.38
2012,12,19,12,40,998.38
2012,12,19,12,41,998.31
2012,12,19,12,42,998.27
2012,12,19,12,43,998.24
2012,12,19,12,44,998.17
2012,12,19,12,45,998.00
2012,12,19,12,46,998.00
2012,12,19,12,47,997.90
2012,12,19,12,48,998.00
2012,12,19,12,49,998.00
2012,12,19,12,50,997.88
2012,12,19,12,51,997.80
2012,12,19,12,52,997.87
2012,12,19,12,53,997.87
2012,12,19,12,54,997.73
2012,12,19,12,55,997.70
2012,12,19,12,56,997.66
2012,12,19,12,57,997.63
2012,12,19,12,58,997.66
2012,12,19,12,59,997.56
2012,12,19,13,00,997.60
2012,12,19,13,01,997.60
2012,12,19,13,02,997.53
2012,12,19,13,03,997.66
2012,12,19,13,04,997.73
2012,12,19,13,05,997.73
2012,12,19,13,06,997.70
2012,12,19,13,07,997.73
2012,12,19,13,08,997.70
2012,12,19,13,09,997.66
2012,12,19,13,10,997.53
2012,12,19,13,11,997.60
2012,12,19,13,12,997.63
2012,12,19,13,13,997.60
2012,12,19,13,14,997.53
2012,12,19,13,15,997.63
2012,12,19,13,16,997.63
2012,12,19,13,17,997.56
2012,12,19,13,18,997.39
2012,12,19,13,19,997.43
2012,12,19,13,20,997.50
2012,12,19,13,21,997.46
2012,12,19,13,22,997.36
2012,12,19,13,23,997.46
2012,12,19,13,24,997.43
2012,12,19,13,25,997.46
2012,12,19,13,26,997.46
2012,12,19,13,27,997.56
2012,12,19,13,28,997.60
2012,12,19,13,29,997.70
2012,12,19,13,30,997.70
2012,12,19,13,31,997.73
2012,12,19,13,32,997.63
2012,12,19,13,33,997.77
2012,12,19,13,34,997.70
2012,12,19,13,35,997.70
2012,12,19,13,36,997.73
2012,12,19,13,37,997.77
2012,12,19,13,38,997.66
2012,12,19,13,39,997.63
2012,12,19,13,40,997.60
2012,12,19,13,41,997.63
2012,12,19,13,42,997.66
2012,12,19,13,43,997.66
2012,12,19,13,44,997.73
2012,12,19,13,45,997.77
2012,12,19,13,46,997.73
2012,12,19,13,47,997.77
2012,12,19,13,48,997.80
2012,12,19,13,49,997.83
2012,12,19,13,50,997.87
2012,12,19,13,51,997.77
2012,12,19,13,52,997.80
2012,12,19,13,53,997.80
2012,12,19,13,54,997.77
2012,12,19,13,55,997.87
2012,12,19,13,56,997.90
2012,12,19,13,57,997.83
2012,12,19,13,58,997.87
2012,12,19,13,59,997.83
2012,12,19,14,00,997.87
2012,12,19,14,01,997.87
2012,12,19,14,02,997.87
2012,12,19,14,03,997.80
2012,12,19,14,04,997.80
2012,12,19,14,05,997.83
2012,12,19,14,06,997.77
2012,12,19,14,07,997.77
2012,12,19,14,08,997.73
2012,12,19,14,09,997.77
2012,12,19,14,10,997.80
2012,12,19,14,11,997.77
2012,12,19,14,12,997.83
2012,12,19,14,13,997.83
2012,12,19,14,14,997.87
2012,12,19,14,15,997.80
2012,12,19,14,16,997.77
2012,12,19,14,17,997.73
2012,12,19,14,18,997.70
2012,12,19,14,19,997.70
2012,12,19,14,20,997.70
2012,12,19,14,21,997.63
2012,12,19,14,22,997.66
2012,12,19,14,23,997.70
2012,12,19,14,24,997.73
2012,12,19,14,25,997.73
2012,12,19,14,26,997.66
2012,12,19,14,27,997.63
2012,12,19,14,28,997.60
2012,12,19,14,29,997.60
2012,12,19,14,30,997.60
2012,12,19,14,31,997.60
2012,12,19,14,32,997.60
2012,12,19,14,33,997.53
2012,12,19,14,34,997.56
2012,12,19,14,35,997.63
2012,12,19,14,36,997.56
2012,12,19,14,37,997.66
2012,12,19,14,38,997.66
2012,12,19,14,39,997.70
2012,12,19,14,40,997.70
2012,12,19,14,41,997.80
2012,12,19,14,42,997.83
2012,12,19,14,43,997.90
2012,12,19,14,44,997.94
2012,12,19,14,45,997.84
2012,12,19,14,46,997.90
2012,12,19,14,47,997.97
2012,12,19,14,48,997.90
2012,12,19,14,49,998.00
2012,12,19,14,50,997.97
2012,12,19,14,51,998.00
2012,12,19,14,52,998.00
2012,12,19,14,53,997.97
2012,12,19,14,54,998.00
2012,12,19,14,55,997.97
2012,12,19,14,56,998.00
2012,12,19,14,57,997.97
2012,12,19,14,58,997.97
2012,12,19,14,59,997.83
2012,12,19,15,00,997.90
2012,12,19,15,01,997.97
2012,12,19,15,02,997.97
2012,12,19,15,03,997.97
2012,12,19,15,04,997.88
2012,12,19,15,05,997.87
2012,12,19,15,06,997.80
2012,12,19,15,07,997.80
2012,12,19,15,08,997.80
2012,12,19,15,09,997.87
2012,12,19,15,10,997.87
2012,12,19,15,11,997.87
2012,12,19,15,12,997.83
2012,12,19,15,13,997.83
2012,12,19,15,14,997.83
2012,12,19,15,15,997.73
2012,12,19,15,16,997.73
2012,12,19,15,17,997.70
2012,12,19,15,18,997.70
2012,12,19,15,19,997.66
2012,12,19,15,20,997.54
2012,12,19,15,21,997.46
2012,12,19,15,22,997.39
2012,12,19,15,23,997.33
2012,12,19,15,24,997.26
2012,12,19,15,25,997.16
2012,12,19,15,26,997.16
2012,12,19,15,27,997.16
2012,12,19,15,28,997.09
2012,12,19,15,29,997.05
2012,12,19,15,30,996.95
2012,12,19,15,31,996.85
2012,12,19,15,32,996.82
2012,12,19,15,33,996.85
2012,12,19,15,34,996.78
2012,12,19,15,35,996.78
2012,12,19,15,36,996.85
2012,12,19,15,37,996.85
2012,12,19,15,38,996.92
2012,12,19,15,39,996.92
2012,12,19,15,40,996.89
2012,12,19,15,41,996.99
2012,12,19,15,42,997.05
2012,12,19,15,43,997.02
2012,12,19,15,44,997.09
2012,12,19,15,45,997.09
2012,12,19,15,46,997.16
2012,12,19,15,47,997.12
2012,12,19,15,48,997.22
2012,12,19,15,49,997.16
2012,12,19,15,50,997.28
2012,12,19,15,51,997.29
2012,12,19,15,52,997.22
2012,12,19,15,53,997.26
2012,12,19,15,54,997.29
2012,12,19,15,55,997.39
2012,12,19,15,56,997.46
2012,12,19,15,57,997.43
2012,12,19,15,58,997.36
2012,12,19,15,59,997.29
2012,12,19,16,00,997.29
2012,12,19,16,01,997.26
2012,12,19,16,02,997.33
2012,12,19,16,03,997.33
2012,12,19,16,04,997.33
2012,12,19,16,05,997.29
2012,12,19,16,06,997.22
2012,12,19,16,07,997.22
2012,12,19,16,08,997.26
2012,12,19,16,09,997.19
2012,12,19,16,10,997.19
2012,12,19,16,11,997.16
2012,12,19,16,12,997.16